This demonstration page uses our WeatherBlox Daily Observations layout. Learn more.

39.51506, -84.39828

Hourly Observations for November 2, 2019

Temp ( °F °C ) Dew Point ( °F °C ) Humidity (%) Winds ( mph kmh ) Pressure ( in mb ) Visibility ( mi km ) Precip ( " mm )
12:15 am 00:15 Clear 30 -1.1 29 -1.5 97 97 Calm 30.29 1026 7 11.26538 0 0
12:35 am 00:35 Clear 30 -1.3 29 -1.8 96 96 Calm 30.29 1026 7 11.26538 0 0
12:55 am 00:55 Clear with Mist and Fog 29 -1.4 29 -1.8 97 97 Calm 30.28 1025 7 11.26538 0 0
1:15 am 01:15 Clear with Mist and Fog 30 -1.3 29 -1.6 98 98 Calm 30.29 1026 5 8.0467 0 0
1:35 am 01:35 Clear with Mist and Fog 29 -1.7 29 -1.9 99 99 Calm 30.29 1026 7 11.26538 0 0
1:55 am 01:55 Clear with Mist and Fog 28 -2 28 -2.2 99 99 Calm 30.29 1026 5 8.0467 0 0
2:15 am 02:15 Clear with Mist and Fog 29 -1.8 28 -2 99 99 Calm 30.28 1025 5 8.0467 0 0
2:35 am 02:35 Clear with Mist and Fog 29 -1.6 29 -1.8 99 99 Calm 30.28 1025 5 8.0467 0 0
2:55 am 02:55 Partly Cloudy 29 -1.8 28 -2.1 98 98 Calm 30.27 1025 7 11.26538 0 0
3:15 am 03:15 Partly Cloudy with Mist and Fog 29 -1.7 29 -1.9 99 99 Calm 30.27 1025 5 8.0467 0 0
3:35 am 03:35 Cloudy 29 -1.6 28 -2 97 97 Calm 30.27 1025 10 16.0934 0 0
3:55 am 03:55 Cloudy 29 -1.4 29 -1.8 97 97 Calm 30.27 1025 7 11.26538 0 0
4:15 am 04:15 Cloudy 30 -0.9 30 -1.3 97 97 Calm 30.26 1025 7 11.26538 0 0
4:35 am 04:35 Cloudy 31 -0.6 30 -1 97 97 Calm 30.25 1024 10 16.0934 0 0
4:55 am 04:55 Partly Cloudy 30 -0.9 30 -1.3 97 97 Calm 30.25 1024 7 11.26538 0 0
5:15 am 05:15 Clear with Mist and Fog 30 -0.9 30 -1.3 97 97 Calm 30.24 1024 7 11.26538 0 0
5:35 am 05:35 Clear with Mist and Fog 30 -1.3 29 -1.5 99 99 Calm 30.24 1024 3.5 5.63269 0 0
5:55 am 05:55 Mostly Cloudy with Mist and Fog 29 -1.5 29 -1.7 99 99 Calm 30.23 1024 0.5 0.80467 0 0
6:15 am 06:15 Mostly Cloudy with Freezing Fog 29 -1.8 28 -2 99 99 Calm 30.24 1024 0.25 0.402335 0 0
6:35 am 06:35 Mostly Cloudy with Freezing Fog 29 -1.7 29 -1.8 99 99 Calm 30.23 1024 0.75 1.207005 0 0
6:55 am 06:55 Mostly Cloudy with Freezing Fog 27 -2.6 27 -2.8 99 99 Calm 30.23 1024 0.25 0.402335 0 0
7:15 am 07:15 Mostly Cloudy with Mist and Fog 28 -2.2 28 -2.4 99 99 Calm 30.22 1023 1.25 2.011675 0 0
7:35 am 07:35 Mostly Cloudy with Freezing Fog 28 -2.2 28 -2.4 99 99 Calm 30.22 1023 0.25 0.402335 0 0
7:55 am 07:55 Clear with Mist and Fog 28 -2.2 28 -2.4 99 99 Calm 30.22 1023 2.5 4.02335 0 0
8:15 am 08:15 Sunny with Mist and Fog 27 -3 26 -3.3 98 98 SW 5 7 30.21 1023 3 4.82802 0 0
8:35 am 08:35 Sunny with Mist and Fog 29 -1.6 29 -1.8 99 99 SW 5 7 30.22 1023 7 11.26538 0 0
8:55 am 08:55 Sunny 31 -0.7 31 -0.8 99 99 WSW 3 6 30.21 1023 7 11.26538 0 0
9:15 am 09:15 Sunny 33 0.3 32 0.2 99 99 WSW 5 7 30.21 1023 10 16.0934 0 0
9:35 am 09:35 Sunny 34 1.3 33 0.7 96 96 WSW 7 11 30.21 1023 10 16.0934 0 0
9:55 am 09:55 Sunny 36 2.2 33 0.4 88 88 SW 9 15 30.21 1023 10 16.0934 0 0
10:15 am 10:15 Sunny 37 3 33 0.4 83 83 WSW 10 17 30.21 1023 10 16.0934 0 0
10:35 am 10:35 Sunny 39 3.9 33 0.3 78 78 SW 12 19 30.2 1023 10 16.0934 0 0
10:55 am 10:55 Sunny 40 4.7 33 0.5 74 74 WSW 7 11 30.2 1023 10 16.0934 0 0
11:15 am 11:15 Partly Cloudy 42 5.4 32 0.1 69 69 WSW 13 20 30.2 1023 10 16.0934 0 0
11:35 am 11:35 Partly Cloudy 41 5.2 32 -0.2 68 68 W 10 17 30.21 1023 10 16.0934 0 0
11:55 am 11:55 Partly Cloudy 43 6.3 32 -0.1 64 64 W 9 15 30.2 1023 10 16.0934 0 0
12:15 pm 12:15 Cloudy 44 6.5 32 0.2 64 64 WSW 5 7 30.21 1023 10 16.0934 0 0
12:35 pm 12:35 Cloudy 44 6.7 33 0.4 64 64 WSW 6 9 30.2 1023 10 16.0934 0 0
12:55 pm 12:55 Cloudy with Light Rain 44 6.8 33 0.6 65 65 WNW 9 15 30.2 1023 10 16.0934 0 0
1:15 pm 13:15 Cloudy 44 6.6 33 0.8 67 67 WNW 9 15 30.2 1023 10 16.0934 0 0
1:35 pm 13:35 Mostly Cloudy 45 7.4 34 0.9 64 64 WSW 9 15 30.19 1022 10 16.0934 0 0
1:55 pm 13:55 Partly Cloudy 46 7.9 34 1.2 63 63 W 8 13 30.17 1022 10 16.0934 0 0
2:15 pm 14:15 Mostly Cloudy 47 8.3 35 1.5 63 63 WNW 10 17 30.17 1022 10 16.0934 0 0
2:35 pm 14:35 Partly Cloudy 47 8.5 34 1.1 60 60 WNW 10 17 30.17 1022 10 16.0934 0 0
2:55 pm 14:55 Partly Cloudy 49 9.3 33 0.8 56 56 WNW 7 11 30.16 1021 10 16.0934 0 0
3:15 pm 15:15 Mostly Cloudy 52 10.9 33 0.5 49 49 W 13 20 30.16 1021 10 16.0934 0 0
3:35 pm 15:35 Mostly Cloudy 50 10.2 32 0 49 49 W 15 24 30.17 1022 10 16.0934 0 0
3:55 pm 15:55 Mostly Cloudy 50 10.2 33 0.3 51 51 W 12 19 30.17 1022 10 16.0934 0 0
4:15 pm 16:15 Partly Cloudy 52 11.1 31 -0.4 45 45 W 16 26 30.16 1021 10 16.0934 0 0
4:35 pm 16:35 Partly Cloudy 52 11 31 -0.4 46 46 W 16 26 30.16 1021 10 16.0934 0 0
4:55 pm 16:55 Mostly Cloudy 51 10.8 31 -0.5 46 46 WSW 12 19 30.16 1021 10 16.0934 0 0
5:15 pm 17:15 Partly Cloudy 49 9.4 31 -0.4 51 51 WSW 9 15 30.16 1021 10 16.0934 0 0
5:35 pm 17:35 Mostly Cloudy 49 9.2 31 -0.3 52 52 W 8 13 30.17 1022 10 16.0934 0 0
5:55 pm 17:55 Cloudy 49 9.4 31 -0.8 49 49 W 13 20 30.18 1022 10 16.0934 0 0
6:15 pm 18:15 Mostly Cloudy 48 8.8 29 -1.5 49 49 WNW 14 22 30.18 1022 10 16.0934 0 0
6:35 pm 18:35 Mostly Cloudy 47 8.1 31 -0.7 54 54 NW 20 31 30.19 1022 10 16.0934 0 0
6:55 pm 18:55 Mostly Cloudy 46 7.5 30 -1.3 54 54 WNW 13 20 30.22 1023 10 16.0934 0 0
7:15 pm 19:15 Mostly Cloudy 45 7 28 -2 53 53 WNW 10 17 30.22 1023 10 16.0934 0 0
7:35 pm 19:35 Partly Cloudy 43 6 28 -2.3 56 56 WNW 9 15 30.22 1023 10 16.0934 0 0
7:55 pm 19:55 Clear 42 5.3 28 -2.5 58 58 WNW 7 11 30.23 1024 10 16.0934 0 0
8:15 pm 20:15 Partly Cloudy 41 5.1 28 -2.4 59 59 W 6 9 30.23 1024 10 16.0934 0 0
8:35 pm 20:35 Clear 41 4.8 27 -2.6 59 59 W 5 7 30.23 1024 10 16.0934 0 0
8:55 pm 20:55 Partly Cloudy 40 4.7 27 -2.8 59 59 WSW 5 7 30.22 1023 10 16.0934 0 0
9:15 pm 21:15 Clear 37 3 30 -1 75 75 WSW 3 6 30.23 1024 10 16.0934 0 0
9:35 pm 21:35 Clear 35 1.9 31 -0.7 83 83 W 3 6 30.24 1024 10 16.0934 0 0
9:55 pm 21:55 Clear 33 0.7 29 -1.6 85 85 WSW 3 6 30.23 1024 10 16.0934 0 0
10:15 pm 22:15 Clear 35 1.4 29 -1.6 81 81 WSW 5 7 30.24 1024 10 16.0934 0 0
10:35 pm 22:35 Clear 35 1.6 28 -2.2 76 76 W 3 6 30.25 1024 10 16.0934 0 0
10:55 pm 22:55 Clear 36 2.2 29 -1.8 75 75 W 5 7 30.26 1025 10 16.0934 0 0
11:15 pm 23:15 Clear 36 2 28 -2.3 73 73 W 6 9 30.26 1025 10 16.0934 0 0
11:35 pm 23:35 Clear 37 2.5 28 -2.3 71 71 W 5 7 30.26 1025 10 16.0934 0 0
11:55 pm 23:55 Mostly Cloudy 36 2.3 29 -1.9 74 74 Calm 30.26 1025 10 16.0934 0 0

Powered by AerisWeather